sat.trackr.live / text

‹ back to catalog

STARLINK-5449

NORAD 54780 · 2022-175Y

PAYLOAD ACTIVE UNKNOWN

§ Identity

Operator
Country
US
Launch date
2022-12-17
Launch site
AFETR
Launch vehicle
Mass (kg)
RCS (m²)

Purposes: comms

External: N2YO · Heavens-Above · Gunter

§ Orbital elements

Epoch: 2026-09-20T14:01:37.970400Z

Period
93.85 min
Inclination
53.1585°
Eccentricity
0.0001219
Mean motion
15.34377634 rev/d
Perigee alt
461.9 km
Apogee alt
463.6 km
Semi-major
6,840.9 km
B*
5.5764e-5
RAAN
219.3935°
Arg perigee
95.6016°
Mean anomaly
264.5125°
Rev number
20,975

§ Raw data

STARLINK-54491 54780U 22175Y   26263.58446725  .00001507  00000+0  55764-4 0  99942 54780  53.1585 219.3935 0001219  95.6016 264.5125 15.34377634209756

JSON: /api/v1/satellites/54780 · /tle

For live sub-satellite position, see the globe view (requires WebGL).

§ Visibility from observer

Set your observer location to see the next 7 days of passes ≥ 10°. The values pass through the URL so the page stays shareable.

No JS? Fill the form by hand. The geolocation button needs JavaScript.